Weather History for Paris, IL

Change the Weather History Date:

Friday, November 8, 2013

  Actual Average (KHUF) Record (KHUF)
Temperature  
Mean Temperature 40 °F 47 °F  
Max Temperature 53 °F 57 °F 75 °F (1999)
Min Temperature 28 °F 37 °F 11 °F (1991)
Degree Days  
Heating Degree Days 24 18  
Month to date heating degree days 137  
Since 1 July heating degree days 564  
Cooling Degree Days 0 0  
Month to date cooling degree days 0  
Year to date cooling degree days 993  
Moisture  
Dew Point 31 °F    
Average Humidity 72    
Maximum Humidity 94    
Minimum Humidity 40    
Precipitation  
Precipitation 0.00 in 0.11 in 0.89 in (1957)
Month to date precipitation 1.03  
Year to date precipitation 39.30  
Sea Level Pressure  
Sea Level Pressure 30.28 in    
Wind  
Wind Speed 5 mph (SSW)    
Max Wind Speed 17 mph    
Max Gust Speed 25 mph    
Visibility 10 miles    
Events      
T = Trace of Precipitation, MM = Missing Value Source: NWS Daily Summary

Daily Weather History Graph

Daily Weather History Graph

Search for Another Location

Airport:

Trip Planner

Search our weather history database for the weather conditions in past years. The results will help you decide how hot, cold, wet, or windy it might be!

Date:

Astronomy

Nov. 08, 2013 Rise Set
Actual Time 6:27 AM CST 4:40 PM CST
Civil Twilight 5:59 AM CST 5:09 PM CST
Nautical Twilight 5:26 AM CST 5:41 PM CST
Astronomical Twilight 4:55 AM CST 6:13 PM CST
Moon 11:22 AM CST (11/8) 10:01 PM CST (11/8)
Length of Visible Light 11h 10m
Length of Day
10h 13m
Waxing Crescent, 33% of the Moon is Illuminated
Nov 8
Waxing Crescent
Nov 9
First Quarter
Nov 17
Full
Nov 25
Last Quarter
Dec 2
New

Hourly Weather History & Observations

Time (CST) Temp. Windchill Dew Point Humidity Pressure Visibility Wind Dir Wind Speed Gust Speed Precip Events Conditions
12:15 AM 30.6 °F - 29.1 °F 94% 30.30 in 10.0 mi Calm Calm - N/A   Clear
12:35 AM 30.0 °F 25.2 °F 28.0 °F 92% 30.30 in 10.0 mi WSW 4.6 mph - N/A   Clear
12:55 AM 30.6 °F 25.8 °F 28.4 °F 92% 30.30 in 10.0 mi WSW 4.6 mph - N/A   Clear
1:15 AM 31.3 °F 26.6 °F 28.9 °F 91% 30.30 in 10.0 mi WSW 4.6 mph - N/A   Clear
1:35 AM 32.9 °F 27.5 °F 29.5 °F 87% 30.30 in 10.0 mi West 5.8 mph - N/A   Clear
1:55 AM 32.2 °F 24.4 °F 29.3 °F 89% 30.31 in 10.0 mi West 9.2 mph - N/A   Clear
2:15 AM 32.0 °F 25.6 °F 29.5 °F 90% 30.32 in 10.0 mi West 6.9 mph - N/A   Clear
2:35 AM 32.2 °F 25.0 °F 29.8 °F 91% 30.32 in 10.0 mi West 8.1 mph - N/A   Clear
2:55 AM 31.3 °F 26.6 °F 28.2 °F 88% 30.32 in 10.0 mi West 4.6 mph - N/A   Clear
3:15 AM 30.4 °F 26.9 °F 28.0 °F 91% 30.32 in 10.0 mi West 3.5 mph - N/A   Clear
3:35 AM 29.8 °F 24.9 °F 27.5 °F 91% 30.33 in 10.0 mi West 4.6 mph - N/A   Clear
3:55 AM 29.1 °F 25.4 °F 27.1 °F 92% 30.33 in 10.0 mi West 3.5 mph - N/A   Clear
4:15 AM 29.3 °F 24.3 °F 27.5 °F 93% 30.33 in 10.0 mi West 4.6 mph - N/A   Clear
4:35 AM 31.3 °F 24.7 °F 29.3 °F 92% 30.34 in 10.0 mi West 6.9 mph - N/A   Clear
4:55 AM 29.8 °F 26.3 °F 27.5 °F 91% 30.34 in 10.0 mi West 3.5 mph - N/A   Clear
5:15 AM 30.4 °F 24.5 °F 28.4 °F 92% 30.34 in 10.0 mi West 5.8 mph - N/A   Clear
5:35 AM 29.8 °F 26.3 °F 27.9 °F 92% 30.34 in 10.0 mi WNW 3.5 mph - N/A   Clear
5:55 AM 28.8 °F - 27.0 °F 93% 30.35 in 10.0 mi Calm Calm - N/A   Clear
6:15 AM 28.4 °F 24.6 °F 27.0 °F 94% 30.35 in 10.0 mi West 3.5 mph - N/A   Clear
6:35 AM 28.4 °F 24.6 °F 27.0 °F 94% 30.36 in 10.0 mi West 3.5 mph - N/A   Clear
6:55 AM 28.4 °F - 27.0 °F 94% 30.36 in 10.0 mi Calm Calm - N/A   Clear
7:15 AM 30.0 °F - 28.4 °F 94% 30.37 in 10.0 mi Calm Calm - N/A   Clear
7:35 AM 31.8 °F - 29.8 °F 92% 30.37 in 10.0 mi Calm Calm - N/A   Clear
7:55 AM 33.6 °F 30.6 °F 31.1 °F 90% 30.38 in 10.0 mi WSW 3.5 mph - N/A   Clear
8:15 AM 35.1 °F 32.2 °F 31.8 °F 88% 30.38 in 10.0 mi West 3.5 mph - N/A   Clear
8:35 AM 36.7 °F - 32.0 °F 83% 30.38 in 10.0 mi Calm Calm - N/A   Clear
8:55 AM 38.3 °F - 32.7 °F 80% 30.38 in 10.0 mi Calm Calm - N/A   Clear
9:15 AM 40.1 °F - 32.0 °F 73% 30.38 in 10.0 mi Calm Calm - N/A   Clear
9:35 AM 41.5 °F - 32.0 °F 69% 30.38 in 10.0 mi Calm Calm - N/A   Clear
9:55 AM 42.6 °F - 32.9 °F 68% 30.38 in 10.0 mi Calm Calm - N/A   Clear
10:15 AM 44.1 °F - 31.8 °F 62% 30.38 in 10.0 mi Calm Calm - N/A   Clear
10:35 AM 45.3 °F 44.0 °F 31.1 °F 58% 30.37 in 10.0 mi SSE 3.5 mph - N/A   Clear
10:55 AM 46.6 °F - 27.9 °F 48% 30.36 in 10.0 mi Calm Calm - N/A   Clear
11:15 AM 48.2 °F - 29.1 °F 48% 30.35 in 10.0 mi Calm Calm - N/A   Clear
11:35 AM 49.1 °F - 28.8 °F 45% 30.34 in 10.0 mi SSW 5.8 mph - N/A   Clear
11:55 AM 50.2 °F - 26.4 °F 40% 30.32 in 10.0 mi SW 4.6 mph - N/A   Clear
12:15 PM 50.2 °F - 29.5 °F 45% 30.31 in 10.0 mi Calm Calm - N/A   Clear
12:35 PM 51.8 °F - 31.3 °F 46% 30.30 in 10.0 mi South 5.8 mph - N/A   Clear
12:55 PM 50.5 °F - 32.0 °F 49% 30.29 in 10.0 mi SW 4.6 mph - N/A   Clear
1:15 PM 51.4 °F - 32.0 °F 47% 30.27 in 10.0 mi SSE 8.1 mph - N/A   Clear
1:35 PM 53.2 °F - 32.2 °F 45% 30.27 in 10.0 mi SSE 8.1 mph - N/A   Clear
1:55 PM 52.7 °F - 30.4 °F 42% 30.27 in 10.0 mi South 9.2 mph - N/A   Clear
2:15 PM 52.3 °F - 32.4 °F 47% 30.27 in 10.0 mi South 10.4 mph - N/A   Clear
2:35 PM 50.9 °F - 32.0 °F 48% 30.27 in 10.0 mi South 13.8 mph - N/A   Clear
2:55 PM 51.8 °F - 32.4 °F 48% 30.26 in 10.0 mi SSW 12.7 mph - N/A   Clear
3:15 PM 52.3 °F - 32.0 °F 46% 30.26 in 10.0 mi SSW 10.4 mph - N/A   Clear
3:35 PM 49.3 °F - 32.2 °F 52% 30.25 in 10.0 mi South 9.2 mph - N/A   Clear
3:55 PM 48.2 °F - 33.4 °F 57% 30.24 in 10.0 mi SSE 8.1 mph - N/A   Clear
4:15 PM 48.2 °F - 34.0 °F 58% 30.23 in 10.0 mi SSE 8.1 mph - N/A   Clear
4:35 PM 46.2 °F 42.2 °F 33.8 °F 62% 30.22 in 10.0 mi SSE 8.1 mph - N/A   Clear
4:55 PM 44.6 °F 40.2 °F 33.4 °F 65% 30.22 in 10.0 mi SSE 8.1 mph - N/A   Clear
5:15 PM 42.6 °F 38.4 °F 33.4 °F 70% 30.21 in 10.0 mi SE 6.9 mph - N/A   Clear
5:35 PM 41.7 °F 36.7 °F 33.1 °F 71% 30.20 in 10.0 mi SE 8.1 mph - N/A   Clear
5:55 PM 42.1 °F 38.4 °F 32.0 °F 67% 30.20 in 10.0 mi SE 5.8 mph - N/A   Clear
6:15 PM 41.5 °F 37.1 °F 31.8 °F 68% 30.19 in 10.0 mi SE 6.9 mph - N/A   Clear
6:35 PM 40.3 °F 34.9 °F 31.8 °F 72% 30.19 in 10.0 mi SE 8.1 mph - N/A   Clear
6:55 PM 39.6 °F 36.3 °F 32.0 °F 74% 30.19 in 10.0 mi SE 4.6 mph - N/A   Clear
7:15 PM 39.6 °F 34.7 °F 32.0 °F 74% 30.19 in 10.0 mi SE 6.9 mph - N/A   Clear
7:35 PM 39.2 °F 34.2 °F 32.0 °F 75% 30.18 in 10.0 mi SSE 6.9 mph - N/A   Clear
7:55 PM 39.4 °F 33.8 °F 32.0 °F 75% 30.17 in 10.0 mi SSE 8.1 mph - N/A   Clear
8:15 PM 40.3 °F 34.4 °F 32.2 °F 73% 30.17 in 10.0 mi SSE 9.2 mph - N/A   Clear
8:35 PM 41.2 °F 35.0 °F 32.5 °F 71% 30.17 in 10.0 mi SSE 10.4 mph - N/A   Clear
8:55 PM 42.4 °F 36.1 °F 32.0 °F 67% 30.17 in 10.0 mi SSE 11.5 mph - N/A   Clear
9:15 PM 42.6 °F 36.3 °F 31.5 °F 65% 30.17 in 10.0 mi SSE 11.5 mph - N/A   Clear
9:35 PM 42.3 °F 35.9 °F 31.1 °F 65% 30.17 in 10.0 mi South 11.5 mph - N/A   Clear
9:55 PM 42.4 °F 35.3 °F 31.1 °F 64% 30.16 in 10.0 mi South 13.8 mph - N/A   Clear
10:15 PM 42.8 °F 36.2 °F 31.1 °F 63% 30.15 in 10.0 mi South 12.7 mph - N/A   Clear
10:35 PM 42.4 °F 35.3 °F 30.9 °F 64% 30.15 in 10.0 mi South 13.8 mph - N/A   Scattered Clouds
10:55 PM 42.8 °F 35.8 °F 31.1 °F 63% 30.14 in 10.0 mi South 13.8 mph - N/A   Mostly Cloudy
11:15 PM 43.0 °F 35.1 °F 31.5 °F 64% 30.13 in 10.0 mi South 17.3 mph - N/A   Overcast
11:35 PM 42.8 °F 34.8 °F 30.9 °F 63% 30.12 in 10.0 mi South 17.3 mph - N/A   Mostly Cloudy
11:55 PM 43.2 °F 35.6 °F 31.1 °F 62% 30.12 in 10.0 mi South 16.1 mph 25.3 mph N/A   Mostly Cloudy